Simultaneous Nadir Overpasses (SNOs) Predictions

Prediction of SNOs between LANDSAT-8 and METOP-A Satellite Orbit:

Table of predicted SNOs for the next 14.0 days since TLE Epoch: 3/24/2018
Index Date (LANDSAT-8) Time (LANDSAT-8) Lat,Lon (LANDSAT-8) SZA (LANDSAT-8 ) Date (METOP-A) Time (METOP-A) Lat,Lon (METOP-A) SZA (METOP-A ) Distance(km) Time Diff (sec)
1 03/26/2018 04:50:06 81.31, 149.83 81.23 03/26/2018 04:48:55 81.30, 149.65 81.18 2.93 71
2 03/26/2018 05:39:32 -81.32, -42.24 98.74 03/26/2018 05:39:34 -81.32, -42.29 98.75 1.07 2
3 03/29/2018 00:24:20 81.30,-143.75 80.16 03/29/2018 00:23:13 81.30,-143.79 80.13 0.70 67
4 03/29/2018 01:13:46 -81.32, 24.22 99.81 03/29/2018 01:13:52 -81.32, 24.31 99.80 1.54 6
5 03/31/2018 19:58:33 81.30, -77.35 79.09 03/31/2018 19:57:30 81.31, -77.24 79.07 1.85 63
6 03/31/2018 20:47:59 -81.32, 90.64 100.88 03/31/2018 20:48:10 -81.32, 90.51 100.89 2.31 11
7 04/03/2018 15:32:47 81.30, -10.98 78.02 04/03/2018 15:31:49 81.30, -11.10 77.99 2.11 58
8 04/03/2018 16:22:13 -81.32, 157.03 101.95 04/03/2018 16:22:28 -81.32, 157.08 101.93 0.76 15
9 04/06/2018 11:07:00 81.31, 55.74 77.02 04/06/2018 11:06:06 81.31, 55.80 77.00 1.09 54




NCC Satellite Simultaneous Nadir Overpasses (SNOs) Prediction Service
